Zurück zum Katalog

THOR 3

AktivKommunikationGEO
NORAD 25358·PAYLOAD·🇳🇴 Norway

Gestartet Jun 10, 1998 von Cape Canaveral Space Force Station

Loading…

TLE

AktuellSource: Space-Track

Epoche: Sep 14, 2026, 08:20 UTC

1 25358U 98035A   26257.34743833 -.00000123  00000-0  00000-0 0  9992
2 25358  11.9623  38.2365 0005534 186.9217 183.6155  0.98828440103371

Verfolge THOR 3 in Echtzeit mit AllMySat

Download on the App Store